[[{"header":{"parameterUnit":"m.s-1","parameterCategory":1,"la1":30.2991,"la2":30.254,"lo1":-89.0895,"lo2":-89.0444,"dy":0.0017,"dx":0.0017,"nx":28,"ny":28,"refTime":"2023-09-21T03:00:00:Z","depth":0,"parameterNumber":2,"parameterNumberName":"U-component_of_WINDS"},"data":[0,0,0,0,0,0,0,0,0,0,0,0,0,0,0,0,0,0,0,0,0,0,0,0,0,0,0,0,0,0,0,0,0,0,0,0,0,0,0,0,0,0,0,0,0,0,0,0,0,0,0,0,0,0,0,0,0,0,-4.8228,-4.8228,0,-4.8237,-4.8237,-4.8237,-4.8114,-4.8111,-4.8107,-4.8104,-4.8116,-4.812,-4.8123,0,0,0,0,0,0,0,0,0,0,0,0,0,-4.8109,-4.8112,-4.8228,-4.8228,-4.8228,-4.8237,-4.8237,-4.8237,-4.8115,-4.8111,-4.8107,-4.8103,-4.8115,-4.8119,-4.8123,0,0,0,0,0,0,0,0,0,0,0,0,0,-4.8144,-4.8113,-4.8228,-4.8168,-4.8163,-4.8237,-4.8237,-4.8237,-4.8116,-4.8111,-4.8105,-4.8101,-4.8114,-4.8119,-4.8124,-4.8257,0,0,-4.814,-4.8142,0,0,0,0,0,0,0,0,-4.8142,-4.8148,-4.8177,-4.8172,-4.8167,-4.8169,-4.8199,-4.8244,-4.8117,-4.8134,-4.8104,-4.8098,-4.8138,-4.8141,-4.8154,-4.8257,-4.8258,-4.814,-4.8143,-4.8146,-4.8147,0,0,0,0,0,0,0,-4.814,-4.8147,-4.8232,-4.8177,-4.8171,-4.8142,-4.8142,-4.8207,-4.8164,-4.8132,-4.8123,-4.8125,-4.8134,-4.8149,-4.8153,-4.8258,-4.814,-4.8145,-4.8148,-4.815,-4.8474,-4.8479,0,0,0,0,0,0,-4.8145,-4.8146,-4.8231,-4.8232,-4.8142,-4.8148,-4.8148,-4.8174,-4.8163,-4.8157,-4.813,-4.812,-4.8143,-4.8147,-4.8153,-4.831,-4.8146,-4.815,-4.8153,-4.8468,-4.8475,-4.8481,0,0,0,0,0,0,-4.8143,-4.8154,-4.8231,-4.8187,-4.8194,-4.8156,-4.8186,-4.8176,-4.8191,-4.8161,-4.8153,-4.8152,-4.8139,-4.8146,-4.8232,-4.8309,-4.8153,-4.8157,-4.8462,-4.8471,-4.8478,-4.8623,0,0,0,0,0,0,-4.814,-4.8154,-4.8203,-4.8189,-4.8197,-4.8309,-4.819,-4.818,-4.82,-4.8187,-4.8181,-4.8175,-4.8136,-4.8225,-4.8238,-4.8313,-4.8161,-4.8455,-4.8466,-4.8476,-4.8612,-4.8636,-4.8656,0,0,0,0,0,-4.8136,-4.8243,-4.8206,-4.8217,-4.8257,-4.8314,-4.8318,-4.827,-4.8206,-4.8256,-4.8238,-4.8175,-4.8298,-4.8235,-4.8248,-4.8326,-4.845,-4.8463,-4.8475,-4.8602,-4.8631,-4.8656,0,0,0,0,0,0,-4.8267,-4.824,-4.8198,-4.8303,-4.8312,-4.8293,-4.8354,-4.8302,-4.8329,-4.8316,-4.8256,-4.8256,-4.8353,-4.8348,-4.8278,-4.8455,-4.8363,-4.8379,-4.8455,-4.8483,-4.8505,-4.8504,-4.8166,0,0,0,0,0,-4.8309,-4.8356,-4.8329,-4.8425,-4.8431,-4.8393,-4.8415,-4.8377,-4.8384,-4.8387,-4.8374,-4.8384,-4.8425,-4.8453,-4.8489,-4.861,-4.8609,-4.867,-4.8693,-4.8711,-4.8726,-4.8792,-4.882,-4.8522,-4.8522,-4.8521,0,0,-4.8394,-4.8385,-4.8418,-4.8451,-4.8453,-4.8505,-4.8396,-4.8454,-4.8493,-4.8396,-4.8477,-4.8469,-4.8476,-4.8581,-4.8627,-4.858,-4.8808,-4.8727,-4.8742,-4.8746,-4.8808,-4.8836,-4.8861,-4.853,-4.8529,-4.8527,0,0,-4.8577,-4.8574,-4.8654,-4.8659,-4.8663,-4.8637,-4.8656,-4.8646,-4.8636,-4.8717,-4.8646,-4.8691,-4.8762,-4.8771,-4.8785,-4.8974,-4.8919,-4.8988,-4.9104,-4.917,-4.9193,-4.9214,-4.9284,-4.9309,-4.9002,-4.9002,-4.9003,0,-4.8682,-4.8756,-4.8702,-4.8766,-4.8784,-4.8698,-4.8781,-4.8788,-4.8805,-4.882,-4.8767,-4.8856,-4.8854,-4.8962,-4.9008,-4.9022,-4.9044,-4.8988,-4.9194,-4.9214,-4.9233,-4.9299,-4.9325,-4.9011,-4.901,-4.9009,-4.9008,0,-4.8888,-4.894,-4.9005,-4.9023,-4.9048,-4.9121,-4.908,-4.9112,-4.9073,-4.9053,-4.9138,-4.9133,-4.9168,-4.919,-4.9153,-4.9294,-4.9265,-4.9204,-4.911,-4.9271,-4.9332,-4.9356,-4.9023,-4.902,-4.9017,-4.9015,0,0,-4.9152,-4.9141,-4.9166,-4.9174,-4.9174,-4.9214,-4.9285,-4.9318,-4.9348,-4.9363,-4.9422,-4.9486,-4.943,-4.9446,-4.9409,-4.9466,-4.962,-4.9398,-4.9398,-4.9442,-4.9778,-4.9825,-4.9855,-4.9583,-4.9587,-4.9591,-4.9778,0,-4.9331,-4.9449,-4.9404,-4.9527,-4.9576,-4.9497,-4.9559,-4.9567,-4.9551,-4.9592,-4.9574,-4.9621,-4.9543,-4.9552,-4.9606,-4.959,-4.9687,-4.9575,-4.9639,-4.9642,-4.9641,-4.9886,-4.9935,-5.0112,-4.9801,-4.9805,-4.9808,0,-4.9555,-4.958,-4.9708,-4.9702,-4.9721,-4.9777,-4.9806,-4.9845,-4.9853,-4.9838,-4.9857,-4.9808,-4.9879,-4.9785,-4.9883,-4.9809,-4.9832,-4.9829,-4.9835,-4.984,-4.9736,-4.99,-5.0167,-5.0195,-4.9845,-4.9842,-4.9839,0,-4.9738,-4.9803,-4.9889,-4.9898,-4.9892,-4.9934,-4.9934,-4.9937,-4.9961,-4.9987,-5.0002,-5.0036,-5.0055,-5.0083,-5.0046,-4.998,-5.0151,-5.0053,-5.0142,-5.0143,-5.0182,-5.018,-5.0459,-5.0195,-5.0195,-5.0194,-5.0194,0,-4.9944,-5.0026,-4.9971,-5.0024,-5.0114,-5.0062,-5.0154,-5.0145,-5.0149,-5.02,-5.0133,-5.0183,-5.013,-5.0176,-5.0147,-5.0234,-5.0243,-5.0234,-5.0226,-5.0241,-5.0243,-5.0256,-5.0244,-5.0201,-5.02,-5.0198,-5.0197,0,-5.0163,-5.0129,-5.0218,-5.0206,-5.0205,-5.0272,-5.0262,-5.0312,-5.0292,-5.0358,-5.037,-5.034,-5.039,-5.0355,-5.0406,-5.0387,-5.0502,-5.0476,-5.0499,-5.0493,-5.0584,-5.0577,-5.0883,-5.0921,-5.0632,-5.0634,-5.0637,0,-5.0297,-5.0358,-5.0353,-5.0383,-5.0387,-5.0435,-5.0459,-5.0411,-5.044,-5.0455,-5.0504,-5.0549,-5.0582,-5.0667,-5.065,-5.0689,-5.0664,-5.0769,-5.067,-5.0684,-5.0669,-5.0666,-5.0673,-5.0789,-5.0793,-5.0795,-5.0798,0,-5.0539,-5.052,-5.0557,-5.059,-5.0622,-5.0645,-5.0663,-5.0692,-5.0643,-5.068,-5.073,-5.0756,-5.0808,-5.0855,-5.0888,-5.0889,-5.0837,-5.0829,-5.0852,-5.0869,-5.0881,-5.0878,-5.0556,-5.0822,-5.082,-5.0818,-5.0817,-5.0816,-5.0721,-5.0773,-5.0778,-5.0823,-5.0832,-5.0851,-5.0898,-5.0884,-5.0925,-5.0964,-5.0933,-5.0995,-5.1004,-5.1043,-5.1051,-5.11,-5.1058,-5.109,-5.1099,-5.1108,-5.1122,-5.0872,-5.1106,-5.1105,-5.1104,-5.1104,-5.1103,0,-5.0961,-5.0961,-5.1003,-5.1031,-5.1067,-5.1014,-5.1032,-5.1067,-5.1121,-5.1134,-5.1169,-5.1229,-5.1274,-5.1262,-5.1303,-5.1344,-5.1322,-5.1357,-5.1354,-5.1356,-5.1157,-5.1134,-5.1375,-5.1375,-5.1375,-5.1375,-5.1375,-5.1375,-5.109,-5.1176,-5.1158,-5.1249,-5.1248,-5.1308,-5.1323,-5.1342,-5.1352,-5.1422,-5.1459,-5.145,-5.1454,-5.1495,-5.1536,-5.1531,-5.155,-5.1595,-5.1582,-5.1396,-5.137,-5.1344,-5.1322,-5.1599,-5.1599,-5.1777,-5.1779,-5.178]},{"header":{"parameterUnit":"m.s-1","parameterCategory":1,"la1":30.2991,"la2":30.254,"lo1":-89.0895,"lo2":-89.0444,"dy":0.0017,"dx":0.0017,"nx":28,"ny":28,"refTime":"2023-09-21T03:00:00:Z","depth":0,"parameterNumber":3,"parameterNumberName":"V-component_of_WINDS"},"data":[0,0,0,0,0,0,0,0,0,0,0,0,0,0,0,0,0,0,0,0,0,0,0,0,0,0,0,0,0,0,0,0,0,0,0,0,0,0,0,0,0,0,0,0,0,0,0,0,0,0,0,0,0,0,0,0,0,0,-0.0657,-0.0657,0,-0.0675,-0.0675,-0.0675,-0.0647,-0.0646,-0.0645,-0.0645,-0.0666,-0.0668,-0.0669,0,0,0,0,0,0,0,0,0,0,0,0,0,-0.0602,-0.0603,-0.0657,-0.0657,-0.0657,-0.0675,-0.0675,-0.0675,-0.0648,-0.0646,-0.0645,-0.0644,-0.0666,-0.0668,-0.0669,0,0,0,0,0,0,0,0,0,0,0,0,0,-0.0624,-0.0604,-0.0657,-0.0646,-0.0645,-0.0675,-0.0675,-0.0675,-0.0648,-0.0646,-0.0645,-0.0644,-0.0665,-0.0667,-0.067,-0.0712,0,0,-0.0676,-0.0677,0,0,0,0,0,0,0,0,-0.0622,-0.0626,-0.0647,-0.0647,-0.0646,-0.0657,-0.0663,-0.0688,-0.0648,-0.0647,-0.0645,-0.0643,-0.0665,-0.0667,-0.0674,-0.0713,-0.0714,-0.0677,-0.0678,-0.0679,-0.068,0,0,0,0,0,0,0,-0.0621,-0.0625,-0.0664,-0.0647,-0.0647,-0.0641,-0.0642,-0.0668,-0.0664,-0.0647,-0.0645,-0.0647,-0.0664,-0.0671,-0.0674,-0.0715,-0.0677,-0.0679,-0.068,-0.0681,-0.0791,-0.0793,0,0,0,0,0,0,-0.062,-0.0624,-0.0664,-0.0665,-0.063,-0.0643,-0.0644,-0.0655,-0.0663,-0.0663,-0.0648,-0.0646,-0.0668,-0.0671,-0.0675,-0.0726,-0.0679,-0.0681,-0.0682,-0.079,-0.0792,-0.0793,0,0,0,0,0,0,-0.0619,-0.0624,-0.0663,-0.0644,-0.0648,-0.0645,-0.0658,-0.0656,-0.0664,-0.0665,-0.0664,-0.0657,-0.0667,-0.0671,-0.0703,-0.0727,-0.0682,-0.0684,-0.0788,-0.079,-0.0792,-0.083,0,0,0,0,0,0,-0.0618,-0.0624,-0.064,-0.0644,-0.0649,-0.0691,-0.0659,-0.0658,-0.0667,-0.0664,-0.0672,-0.0672,-0.0667,-0.07,-0.0705,-0.0729,-0.0686,-0.0786,-0.0789,-0.0792,-0.0827,-0.0833,-0.0839,0,0,0,0,0,-0.0616,-0.065,-0.0641,-0.0646,-0.0669,-0.0692,-0.0695,-0.0687,-0.0669,-0.0685,-0.0686,-0.0672,-0.0722,-0.0703,-0.0709,-0.0734,-0.0784,-0.0788,-0.0791,-0.0824,-0.0832,-0.0839,0,0,0,0,0,0,-0.065,-0.0651,-0.064,-0.0677,-0.0684,-0.0687,-0.0708,-0.0696,-0.071,-0.0706,-0.0696,-0.0698,-0.0733,-0.0736,-0.0715,-0.0776,-0.0751,-0.0756,-0.0773,-0.0781,-0.0787,-0.0787,-0.0688,0,0,0,0,0,-0.0662,-0.068,-0.0679,-0.0711,-0.0716,-0.0711,-0.0721,-0.0714,-0.0722,-0.0725,-0.0728,-0.0738,-0.0756,-0.0768,-0.0784,-0.0826,-0.0828,-0.0845,-0.0852,-0.0857,-0.0862,-0.0885,-0.0893,-0.0805,-0.0805,-0.0805,0,0,-0.0686,-0.0689,-0.0701,-0.0718,-0.0724,-0.0744,-0.0714,-0.0736,-0.0752,-0.0729,-0.076,-0.0762,-0.0771,-0.0808,-0.0825,-0.0812,-0.0886,-0.0861,-0.0865,-0.0868,-0.089,-0.0898,-0.0906,-0.0808,-0.0807,-0.0807,0,0,-0.0742,-0.0745,-0.0772,-0.0778,-0.0785,-0.0782,-0.0788,-0.0792,-0.0793,-0.0823,-0.0806,-0.0824,-0.0855,-0.0863,-0.0871,-0.0928,-0.0916,-0.0933,-0.0967,-0.099,-0.0997,-0.1003,-0.1025,-0.1033,-0.0938,-0.0938,-0.0938,0,-0.0772,-0.0801,-0.0788,-0.0812,-0.0821,-0.0799,-0.0828,-0.0834,-0.0847,-0.0854,-0.0839,-0.0877,-0.0882,-0.0921,-0.0935,-0.0941,-0.095,-0.0934,-0.0996,-0.1002,-0.1008,-0.1029,-0.1037,-0.094,-0.094,-0.094,-0.094,0,-0.0838,-0.0858,-0.088,-0.0892,-0.0903,-0.0929,-0.0921,-0.0933,-0.0924,-0.0923,-0.0954,-0.0958,-0.0976,-0.0984,-0.0976,-0.1022,-0.1014,-0.0998,-0.0973,-0.1019,-0.1039,-0.1047,-0.0944,-0.0943,-0.0942,-0.0942,0,0,-0.0919,-0.0922,-0.0931,-0.0936,-0.0942,-0.0958,-0.0983,-0.0998,-0.101,-0.1019,-0.1041,-0.1067,-0.1051,-0.1061,-0.1053,-0.1073,-0.1119,-0.1054,-0.1054,-0.1068,-0.1172,-0.1186,-0.1196,-0.111,-0.1111,-0.1113,-0.1172,0,-0.0976,-0.1019,-0.1007,-0.105,-0.1069,-0.1048,-0.107,-0.1076,-0.1075,-0.1091,-0.1089,-0.1109,-0.1086,-0.1092,-0.1109,-0.111,-0.1141,-0.1105,-0.1132,-0.1134,-0.1134,-0.1206,-0.1221,-0.1277,-0.1179,-0.1181,-0.1182,0,-0.1049,-0.106,-0.1104,-0.1107,-0.1115,-0.1134,-0.1148,-0.1163,-0.117,-0.1168,-0.1177,-0.1165,-0.1191,-0.1163,-0.1199,-0.1175,-0.1185,-0.1186,-0.1188,-0.1193,-0.1163,-0.1215,-0.1295,-0.1304,-0.1193,-0.1192,-0.1192,0,-0.1107,-0.1132,-0.1162,-0.1167,-0.117,-0.1185,-0.1187,-0.1192,-0.1202,-0.1214,-0.1221,-0.1235,-0.1244,-0.1256,-0.1249,-0.1229,-0.1287,-0.1258,-0.1287,-0.1288,-0.1303,-0.1303,-0.1388,-0.1305,-0.1305,-0.1305,-0.1305,0,-0.1173,-0.1202,-0.1188,-0.1207,-0.1238,-0.1224,-0.1256,-0.1256,-0.1261,-0.128,-0.1261,-0.128,-0.1268,-0.1286,-0.128,-0.1312,-0.1315,-0.1315,-0.1314,-0.1319,-0.1319,-0.1327,-0.1324,-0.1307,-0.1306,-0.1306,-0.1306,0,-0.1244,-0.1235,-0.1267,-0.1267,-0.1267,-0.1291,-0.1291,-0.1309,-0.1305,-0.1329,-0.1334,-0.1329,-0.1348,-0.1341,-0.1363,-0.1359,-0.14,-0.1392,-0.1398,-0.1397,-0.1427,-0.1426,-0.1524,-0.1537,-0.1442,-0.1443,-0.1444,0,-0.1289,-0.131,-0.1312,-0.1322,-0.1326,-0.1343,-0.1353,-0.134,-0.1351,-0.136,-0.1377,-0.1395,-0.1409,-0.1442,-0.1441,-0.1457,-0.1451,-0.1484,-0.1454,-0.1458,-0.1455,-0.1455,-0.1458,-0.1491,-0.1492,-0.1493,-0.1494,0,-0.137,-0.1364,-0.1378,-0.1391,-0.1403,-0.1413,-0.1421,-0.1431,-0.1419,-0.1432,-0.1451,-0.1462,-0.1483,-0.1502,-0.1516,-0.1519,-0.1506,-0.1503,-0.1511,-0.1518,-0.1521,-0.1522,-0.1417,-0.1502,-0.1501,-0.15,-0.15,-0.15,-0.1431,-0.1449,-0.1453,-0.1469,-0.1474,-0.1482,-0.1498,-0.1496,-0.1511,-0.1527,-0.1518,-0.1541,-0.1547,-0.1564,-0.1569,-0.1588,-0.1575,-0.1587,-0.159,-0.1594,-0.1599,-0.1515,-0.159,-0.159,-0.159,-0.1589,-0.1589,0,-0.1513,-0.1514,-0.1529,-0.154,-0.1554,-0.1536,-0.1544,-0.1557,-0.1577,-0.1583,-0.1597,-0.1619,-0.1637,-0.1635,-0.1652,-0.1667,-0.1661,-0.1672,-0.1672,-0.1674,-0.1608,-0.16,-0.1677,-0.1677,-0.1677,-0.1676,-0.1676,-0.1676,-0.1558,-0.1588,-0.1583,-0.1615,-0.1615,-0.1637,-0.1643,-0.1651,-0.1656,-0.1681,-0.1695,-0.1693,-0.1697,-0.1713,-0.1729,-0.1728,-0.1736,-0.175,-0.1747,-0.1687,-0.1678,-0.167,-0.1663,-0.1751,-0.1751,-0.1812,-0.1812,-0.1813]}]]